This demonstration page uses our WeatherBlox Daily Observations layout. Learn more.

Left ArrowRight Arrow

39.95238, -75.16362

Hourly Observations for May 31, 2018

Temp ( °F °C ) Dew Point ( °F °C ) Humidity (%) Winds ( mph kmh ) Pressure ( in mb ) Visibility ( mi km ) Precip ( " mm )
12:31 am 00:31 Cloudy 63 17.2 61 16.1 93 93 ENE 7 11 30.09 1019 8 13 0.00 0.00
12:54 am 00:54 Cloudy 63 17.2 61 16.1 93 93 ENE 7 11 30.07 1018 8 13 0.00 0.00
1:13 am 01:13 Cloudy with Mist and Fog 63 17.2 61 16.1 93 93 ENE 9 15 30.06 1018 6 10 0.00 0.00
1:37 am 01:37 Cloudy with Light Rain 62 16.7 62 16.7 100 100 NE 7 11 30.06 1018 4 6 0.00 0.03
1:46 am 01:46 Cloudy with Light Rain 62 16.7 62 16.7 100 100 NE 7 11 30.06 1018 3 4 0.01 0.25
1:54 am 01:54 Cloudy with Light Rain 62 16.7 62 16.7 100 100 NE 6 9 30.05 1018 3 4 0.01 0.25
2:00 am 02:00 Cloudy with Mist and Fog 62 16.7 62 16.7 100 100 NE 7 11 30.06 1018 5 8 0.00 0.03
2:07 am 02:07 Cloudy 63 17.2 62 16.7 97 97 ENE 8 13 30.06 1018 7 11 0.00 0.03
2:39 am 02:39 Cloudy 63 17.2 62 16.7 97 97 ENE 6 9 30.03 1017 7 11 0.00 0.03
2:54 am 02:54 Cloudy 63 17.2 62 16.7 97 97 E 7 11 30.03 1017 7 11 0.00 0.03
3:10 am 03:10 Cloudy 63 17.2 62 16.7 97 97 E 7 11 30.03 1017 7 11 0.00 0.00
3:54 am 03:54 Cloudy 63 17.2 62 16.7 97 97 ENE 6 9 30.03 1017 7 11 0.00 0.00
4:54 am 04:54 Cloudy 64 17.8 63 17.2 96 96 ENE 6 9 30.02 1017 7 11 0.00 0.00
5:01 am 05:01 Cloudy with Light Rain 64 17.8 63 17.2 96 96 NE 6 9 30.03 1017 5 8 0.00 0.03
5:09 am 05:09 Cloudy with Light Rain 64 17.8 63 17.2 96 96 ENE 5 7 30.03 1017 1 2 0.00 0.03
5:39 am 05:39 Cloudy with Mist and Fog 64 17.8 64 17.8 100 100 E 6 9 30.03 1017 3 5 0.00 0.03
5:45 am 05:45 Cloudy with Mist and Fog 64 17.8 63 17.2 96 96 E 6 9 30.03 1017 2 3 0.00 0.03
5:50 am 05:50 Cloudy with Light Rain 64 18 63 17 94 94 ENE 5 7 30.03 1017 1 2 0.00 0.03
5:54 am 05:54 Cloudy with Light Rain 64 17.8 64 17.8 100 100 ENE 6 9 30.03 1017 1 2 0.00 0.03
5:59 am 05:59 Cloudy with Light Rain 64 17.8 63 17.2 96 96 ENE 7 11 30.03 1017 1 1 0.00 0.03
6:05 am 06:05 Cloudy with Mist and Fog 64 17.8 64 17.8 100 100 ENE 7 11 30.03 1017 2 3 0.00 0.03
6:20 am 06:20 Cloudy with Mist and Fog 64 17.8 64 17.8 100 100 ENE 6 9 30.03 1017 2 2 0.00 0.03
6:32 am 06:32 Cloudy with Mist and Fog 64 17.8 64 17.8 100 100 ENE 6 9 30.03 1017 3 4 0.00 0.03
6:54 am 06:54 Cloudy with Mist and Fog 65 18.3 64 17.8 97 97 ENE 6 9 30.03 1017 3 5 0.00 0.03
7:49 am 07:49 Cloudy with Light Rain 64 18 64 18 100 100 ENE 8 13 30.03 1017 3 4 0.00 0.03
7:54 am 07:54 Cloudy with Light Rain 65 18.3 64 17.8 97 97 E 8 13 30.02 1017 2 3 0.00 0.03
8:26 am 08:26 Cloudy with Light Rain 66 18.9 65 18.3 96 96 ENE 8 13 30.03 1017 3 5 0.00 0.03
8:54 am 08:54 Cloudy with Light Rain 66 18.9 65 18.3 96 96 NE 8 13 30.02 1017 4 6 0.01 0.25
8:56 am 08:56 Cloudy with Light Rain 66 18.9 65 18.3 96 96 ENE 6 9 30.03 1017 2 3 0.00 0.03
9:41 am 09:41 Cloudy with Mist and Fog 67 19.4 66 18.9 97 97 E 8 13 30.00 1016 2 3 0.00 0.03
9:54 am 09:54 Cloudy with Mist and Fog 67 19.4 67 19.4 100 100 ENE 7 11 30.01 1016 2 3 0.00 0.03
10:12 am 10:12 Cloudy with Mist and Fog 69 20.6 68 20 96 96 ENE 8 13 30.00 1016 2 3 0.00 0.00
10:30 am 10:30 Cloudy with Mist and Fog 69 20.6 67 19.4 93 93 ENE 7 11 30.00 1016 3 5 0.00 0.00
10:50 am 10:50 Cloudy with Mist and Fog 70 21 66 19 88 88 ENE 5 7 30.00 1016 5 8 0.00 0.00
10:54 am 10:54 Cloudy with Mist and Fog 70 21.1 68 20 93 93 ENE 6 9 30.01 1016 5 8 0.00 0.00
11:47 am 11:47 Cloudy 72 22.2 68 20 87 87 E 6 9 30.00 1016 7 11 0.00 0.00
11:54 am 11:54 Cloudy 72 22.2 69 20.6 91 91 E 6 9 30.00 1016 7 11 0.00 0.00
12:54 pm 12:54 Cloudy 74 23.3 70 21.1 88 88 E 7 11 29.98 1015 7 11 0.00 0.00
1:50 pm 13:50 Cloudy 73 23 70 21 89 89 E 5 7 29.97 1015 8 13 0.00 0.00
1:54 pm 13:54 Cloudy 74 23.3 70 21.1 88 88 E 6 9 29.97 1015 8 13 0.00 0.00
2:16 pm 14:16 Cloudy with Light Rain 74 23.3 71 21.7 91 91 ENE 7 11 29.97 1015 6 10 0.00 0.03
2:29 pm 14:29 Cloudy 75 23.9 71 21.7 88 88 E 6 9 29.97 1015 7 11 0.00 0.03
2:54 pm 14:54 Cloudy 75 23.9 71 21.7 88 88 SE 6 9 29.96 1014 8 13 0.00 0.03
3:33 pm 15:33 Cloudy with Mist and Fog 75 23.9 72 22.2 90 90 Calm 29.94 1014 6 10 0.00 0.00
3:54 pm 15:54 Cloudy 79 26.1 72 22.2 79 79 Calm 29.93 1014 7 11 0.00 0.00
4:15 pm 16:15 Cloudy 78 25.6 71 21.7 79 79 SSE 3 6 29.94 1014 10 16 0.00 0.00
4:54 pm 16:54 Mostly Cloudy 80 26.7 71 21.7 74 74 VRB 3 6 29.91 1013 10 16 0.00 0.00
5:54 pm 17:54 Mostly Cloudy 81 27.2 72 22.2 74 74 ENE 5 7 29.88 1012 10 16 0.00 0.00
6:54 pm 18:54 Cloudy 79 26.1 71 21.7 77 77 SE 6 9 29.88 1012 10 16 0.00 0.00
7:54 pm 19:54 Cloudy 78 25.6 71 21.7 79 79 SSE 8 13 29.88 1012 10 16 0.00 0.00
8:54 pm 20:54 Mostly Cloudy 76 24.4 70 21.1 82 82 S 9 15 29.88 1012 10 16 0.00 0.00
9:54 pm 21:54 Mostly Cloudy 74 23.3 71 21.7 91 91 SE 8 13 29.89 1012 10 16 0.00 0.00
10:04 pm 22:04 Mostly Cloudy 74 23.3 71 21.7 91 91 SE 6 9 29.88 1012 10 16 0.00 0.00
10:54 pm 22:54 Cloudy 73 22.8 70 21.1 90 90 SE 5 7 29.88 1012 10 16 0.00 0.00
11:21 pm 23:21 Cloudy 73 22.8 70 21.1 90 90 ESE 7 11 29.88 1012 8 13 0.00 0.03
11:38 pm 23:38 Cloudy with Light Rain 73 22.8 70 21.1 90 90 ESE 5 7 29.88 1012 8 13 0.00 0.03
11:54 pm 23:54 Cloudy 72 22.2 70 21.1 94 94 ESE 7 11 29.86 1011 8 13 0.00 0.03

Powered by AerisWeather